Phoenix, AZ

4:47 PM MST on February 27, 2017 (GMT -0700)
Phoenix Sky Harbor International

Weather History for KPHX - January, 2014

Change the Weather History Date:

Sunday, January 12, 2014

  Actual Average Record
Temperature  
Mean Temperature 58 °F 56 °F  
Max Temperature 69 °F 67 °F 80 °F (1996)
Min Temperature 46 °F 45 °F 22 °F (1962)
Degree Days  
Heating Degree Days 7 9  
Month to date heating degree days 95 114  
Since 1 July heating degree days 412 515  
Cooling Degree Days 0 0  
Month to date cooling degree days 0 0  
Year to date cooling degree days 0 0  
Growing Degree Days 8 (Base 50)    
Moisture  
Dew Point 34 °F    
Average Humidity 43    
Maximum Humidity 61    
Minimum Humidity 24    
Precipitation  
Precipitation 0.00 in 0.03 in 1.04 in (1899)
Month to date precipitation 0.00 0.36  
Year to date precipitation 0.00 0.36  
Snow  
Snow 0.00 in - - ()
Month to date snowfall 0.0  
Year to date snowfall 0.0  
Since 1 July snowfall 0.0  
Snow Depth 0.00 in    
Sea Level Pressure  
Sea Level Pressure 30.03 in    
Wind  
Wind Speed 5 mph (ESE)    
Max Wind Speed 13 mph    
Max Gust Speed 14 mph    
Visibility 10 miles    
Events      
T = Trace of Precipitation, MM = Missing Value Source: NWS Daily Summary

Daily Weather History Graph

Daily Weather History Graph

Search for Another Location

Airport or City:

Trip Planner

Search our weather history database for the weather conditions in past years. The results will help you decide how hot, cold, wet, or windy it might be!

Date:

Astronomy

Jan. 12, 2014 Rise Set
Actual Time 7:32 AM MST 5:40 PM MST
Civil Twilight 7:05 AM MST 6:07 PM MST
Nautical Twilight 6:34 AM MST 6:38 PM MST
Astronomical Twilight 6:04 AM MST 7:08 PM MST
Moon 3:10 PM MST (1/12) 4:35 AM MST (1/12)
Length of Visible Light 11h 02m
Length of Day
10h 08m
Waxing Gibbous, 90% of the Moon is Illuminated
Jan 12
Waxing Gibbous
Jan 15
Full
Jan 23
Last Quarter
Jan 30
New
Feb 6
First Quarter

Hourly Weather History & Observations

Time (MST) Temp. Dew Point Humidity Pressure Visibility Wind Dir Wind Speed Gust Speed Precip Events Conditions
12:51 AM 50.0 °F 35.1 °F 57% 29.96 in 10.0 mi East 6.9 mph - N/A   Clear
1:51 AM 48.9 °F 34.0 °F 56% 29.96 in 10.0 mi East 8.1 mph - N/A   Clear
2:51 AM 48.0 °F 35.1 °F 61% 29.97 in 10.0 mi East 8.1 mph - N/A   Scattered Clouds
3:51 AM 46.9 °F 34.0 °F 61% 29.97 in 10.0 mi East 8.1 mph - N/A   Scattered Clouds
4:51 AM 46.9 °F 34.0 °F 61% 29.96 in 10.0 mi East 8.1 mph - N/A   Scattered Clouds
5:51 AM 46.9 °F 34.0 °F 61% 29.96 in 10.0 mi East 8.1 mph - N/A   Mostly Cloudy
6:51 AM 48.0 °F 33.1 °F 56% 29.99 in 10.0 mi Calm Calm - N/A   Mostly Cloudy
7:51 AM 48.0 °F 33.1 °F 56% 29.99 in 10.0 mi ESE 5.8 mph - N/A   Mostly Cloudy
8:51 AM 50.0 °F 32.0 °F 50% 30.01 in 10.0 mi East 8.1 mph - N/A   Mostly Cloudy
9:51 AM 51.1 °F 34.0 °F 52% 30.06 in 10.0 mi East 8.1 mph - N/A   Partly Cloudy
10:51 AM 57.0 °F 34.0 °F 42% 30.06 in 10.0 mi SSW 4.6 mph - N/A   Partly Cloudy
11:51 AM 59.0 °F 33.1 °F 38% 30.04 in 10.0 mi West 3.5 mph - N/A   Partly Cloudy
12:51 PM 64.0 °F 32.0 °F 30% 30.01 in 10.0 mi Calm Calm - N/A   Partly Cloudy
1:51 PM 64.9 °F 30.9 °F 28% 29.98 in 10.0 mi Calm Calm - N/A   Partly Cloudy
2:51 PM 66.9 °F 30.9 °F 26% 29.99 in 10.0 mi Variable 5.8 mph - N/A   Mostly Cloudy
3:51 PM 68.0 °F 30.0 °F 24% 29.99 in 10.0 mi SW 5.8 mph - N/A   Mostly Cloudy
4:51 PM 66.9 °F 32.0 °F 27% 30.01 in 10.0 mi West 6.9 mph - N/A   Mostly Cloudy
5:51 PM 66.0 °F 33.1 °F 29% 30.03 in 10.0 mi Calm Calm - N/A   Mostly Cloudy
6:51 PM 62.1 °F 35.1 °F 37% 30.05 in 10.0 mi SSE 5.8 mph - N/A   Mostly Cloudy
7:51 PM 59.0 °F 35.1 °F 41% 30.06 in 10.0 mi ESE 3.5 mph - N/A   Scattered Clouds
8:51 PM 59.0 °F 34.0 °F 39% 30.10 in 10.0 mi ENE 5.8 mph - N/A   Partly Cloudy
9:51 PM 55.9 °F 35.1 °F 45% 30.12 in 10.0 mi Calm Calm - N/A   Partly Cloudy
10:51 PM 52.0 °F 36.0 °F 54% 30.14 in 10.0 mi East 5.8 mph - N/A   Partly Cloudy
11:51 PM 51.1 °F 35.1 °F 54% 30.16 in 10.0 mi Calm Calm - N/A   Clear